BAW264 KSAN-EGLL

Flight info

Callsign BAW264
Flight time N/A
Altitude 35000
Route ZZOOO4 MTBAL DCT EED DCT KD45Q DCT KD60U DCT KD75A DCT KP87G DCT KP12M DCT VETRO/N0496F370 DCT OBSAT DCT YAY DCT RIKAL/M085F380 DCT 53N050W 54N040W 55N030W 56N020W DCT PIKIL DCT SOVED/N0483F390 DCT REVNU DCT BOFUM Q37 MALUD Q38 NUGRA
Aircraft A35K/H-SDE2E3GHIJ3J4J5LM1ORWXY/LB1D1

Departure

Time 2026-05-06 11:52
Airport San Diego International Airport (KSAN)

Arrival

Time N/A
Airport London Heathrow Airport (EGLL)
Time Latitude Longitude Altitude Speed Heading
2026-05-06 11:49 32.73001 -117.17929 24 ft 8 kts 106°
2026-05-06 11:49 32.72999 -117.17921 24 ft 2 kts 107°
2026-05-06 11:49 32.72994 -117.17902 24 ft 3 kts 107°
2026-05-06 11:49 32.72985 -117.17867 24 ft 5 kts 107°
2026-05-06 11:50 32.72972 -117.17817 24 ft 7 kts 107°
2026-05-06 11:50 32.72956 -117.17752 24 ft 9 kts 107°
2026-05-06 11:50 32.72957 -117.17676 24 ft 10 kts 71°
2026-05-06 11:50 32.72987 -117.17601 24 ft 10 kts 37°
2026-05-06 11:51 32.73028 -117.17629 24 ft 7 kts 293°
2026-05-06 11:51 32.73038 -117.17663 24 ft 0 kts 287°
2026-05-06 11:51 32.73083 -117.17839 24 ft 63 kts 286°
2026-05-06 11:51 32.73284 -117.18667 26 ft 143 kts 286°
2026-05-06 11:52 32.73589 -117.19921 695 ft 159 kts 286°
2026-05-06 11:52 32.73916 -117.21236 1482 ft 180 kts 286°
2026-05-06 11:52 32.74286 -117.22748 1778 ft 202 kts 287°
2026-05-06 11:52 32.74687 -117.24432 2201 ft 218 kts 284°
2026-05-06 11:53 32.74839 -117.25612 2642 ft 220 kts 272°
2026-05-06 11:53 32.74489 -117.27379 3280 ft 226 kts 242°
2026-05-06 11:53 32.73343 -117.28667 3851 ft 235 kts 208°
2026-05-06 11:53 32.71726 -117.28978 4444 ft 244 kts 174°
2026-05-06 11:54 32.70105 -117.28349 5102 ft 247 kts 158°
2026-05-06 11:54 32.68524 -117.27490 5701 ft 252 kts 156°
2026-05-06 11:54 32.66922 -117.26614 6356 ft 255 kts 156°
2026-05-06 11:54 32.65298 -117.25730 6988 ft 259 kts 155°
2026-05-06 11:55 32.63829 -117.24483 7577 ft 264 kts 133°
2026-05-06 11:55 32.62934 -117.22542 7945 ft 279 kts 103°
2026-05-06 11:55 32.62644 -117.20224 8416 ft 290 kts 95°
2026-05-06 11:55 32.62461 -117.17815 9033 ft 296 kts 94°
2026-05-06 11:56 32.62270 -117.15368 9775 ft 299 kts 95°
2026-05-06 11:56 32.62063 -117.12884 10369 ft 308 kts 95°
2026-05-06 11:56 32.62048 -117.10309 10631 ft 325 kts 79°
2026-05-06 11:56 32.62698 -117.07680 10949 ft 340 kts 67°
2026-05-06 11:57 32.63586 -117.05006 11267 ft 357 kts 66°
2026-05-06 11:57 32.64530 -117.02206 11565 ft 373 kts 66°
2026-05-06 11:57 32.65503 -116.99285 11866 ft 388 kts 67°
2026-05-06 11:57 32.66398 -116.96212 12256 ft 400 kts 75°
2026-05-06 11:58 32.66733 -116.92914 12835 ft 406 kts 86°
2026-05-06 11:58 32.66824 -116.89539 13450 ft 411 kts 87°
2026-05-06 11:58 32.66890 -116.86128 14040 ft 416 kts 87°
2026-05-06 11:58 32.66973 -116.82673 14550 ft 421 kts 85°
2026-05-06 11:59 32.67443 -116.79257 15183 ft 420 kts 71°
2026-05-06 11:59 32.68677 -116.76130 15746 ft 419 kts 53°
2026-05-06 11:59 32.70636 -116.73601 16329 ft 417 kts 36°
2026-05-06 11:59 32.73130 -116.71857 16902 ft 415 kts 19°
2026-05-06 12:00 32.75886 -116.70821 17517 ft 416 kts 16°
2026-05-06 12:00 32.78588 -116.69657 18163 ft 420 kts 19°
2026-05-06 12:00 32.81312 -116.68368 18692 ft 424 kts 20°
2026-05-06 12:00 32.84060 -116.67033 19211 ft 428 kts 20°
2026-05-06 12:01 32.86822 -116.65686 19796 ft 431 kts 20°
2026-05-06 12:01 32.89606 -116.64323 20377 ft 434 kts 20°
2026-05-06 12:01 32.92413 -116.62946 20952 ft 438 kts 20°
2026-05-06 12:01 32.95238 -116.61560 21536 ft 441 kts 20°
2026-05-06 12:02 32.98088 -116.60160 22094 ft 445 kts 20°
2026-05-06 12:02 33.00964 -116.58747 22665 ft 448 kts 20°
2026-05-06 12:02 33.03860 -116.57293 23221 ft 452 kts 21°
2026-05-06 12:02 33.06756 -116.55765 23766 ft 455 kts 21°
2026-05-06 12:03 33.09630 -116.54241 24161 ft 460 kts 20°
2026-05-06 12:03 33.12580 -116.52687 24497 ft 466 kts 20°
2026-05-06 12:03 33.15570 -116.51116 24865 ft 472 kts 21°
2026-05-06 12:03 33.18595 -116.49526 25218 ft 477 kts 20°
2026-05-06 12:04 33.21652 -116.47924 25600 ft 482 kts 20°
2026-05-06 12:04 33.24741 -116.46306 25969 ft 487 kts 20°
2026-05-06 12:04 33.27853 -116.44672 26342 ft 491 kts 20°
2026-05-06 12:04 33.30990 -116.43023 26829 ft 493 kts 21°
2026-05-06 12:05 33.34137 -116.41369 27286 ft 496 kts 21°
2026-05-06 12:05 33.37234 -116.39466 27586 ft 505 kts 28°
2026-05-06 12:05 33.40089 -116.36975 27918 ft 513 kts 39°
2026-05-06 12:05 33.42575 -116.33875 28211 ft 520 kts 49°
2026-05-06 12:06 33.44757 -116.30391 28539 ft 526 kts 52°
2026-05-06 12:06 33.46866 -116.26865 28834 ft 530 kts 52°
2026-05-06 12:06 33.49014 -116.23252 29047 ft 534 kts 52°
2026-05-06 12:06 33.51177 -116.19616 29345 ft 537 kts 53°
2026-05-06 12:07 33.53350 -116.15969 29798 ft 538 kts 52°
2026-05-06 12:07 33.55529 -116.12313 30135 ft 540 kts 52°
2026-05-06 12:07 33.57744 -116.08597 30506 ft 540 kts 52°
2026-05-06 12:07 33.59924 -116.05003 30895 ft 539 kts 50°
2026-05-06 12:08 33.62316 -116.01561 31283 ft 537 kts 46°
2026-05-06 12:08 33.64787 -115.98217 31940 ft 528 kts 46°
2026-05-06 12:08 33.67240 -115.94980 32578 ft 523 kts 45°
2026-05-06 12:08 33.69713 -115.91749 32680 ft 529 kts 45°
2026-05-06 12:09 33.72214 -115.88482 32848 ft 532 kts 45°
2026-05-06 12:09 33.74714 -115.85202 33175 ft 532 kts 45°
2026-05-06 12:09 33.77207 -115.81914 33487 ft 532 kts 45°
2026-05-06 12:09 33.79692 -115.78622 33773 ft 532 kts 45°
2026-05-06 12:10 33.82184 -115.75313 34022 ft 532 kts 46°
2026-05-06 12:10 33.84663 -115.72013 34258 ft 532 kts 46°
2026-05-06 12:10 33.87147 -115.68703 34482 ft 532 kts 46°
2026-05-06 12:10 33.89593 -115.65440 34696 ft 532 kts 46°
2026-05-06 12:11 33.92109 -115.62082 34848 ft 534 kts 46°
2026-05-06 12:11 33.94571 -115.58795 34883 ft 539 kts 46°
2026-05-06 12:11 33.99613 -115.52054 34877 ft 539 kts 46°
2026-05-06 12:12 34.04606 -115.45359 34873 ft 535 kts 46°
2026-05-06 12:12 34.09578 -115.38681 34870 ft 535 kts 46°
2026-05-06 12:13 34.14543 -115.32003 34865 ft 535 kts 46°
2026-05-06 12:13 34.19516 -115.25301 34864 ft 536 kts 46°
2026-05-06 12:14 34.24497 -115.18576 34855 ft 537 kts 46°